Zurück zum Katalog

STARLINK-32851

AktivKommunikationVLEO
NORAD 62810·PAYLOAD·🇺🇸 United States

Gestartet Jan 24, 2025 von Vandenberg Space Force Base

Loading…

Nächste Überflüge (nächste 24 Stunden)

TLE

AktuellSource: CelesTrak SupGP

Epoche: Sep 14, 2026, 21:12 UTC

1 62810C 25018E   26257.88381944 -.00063521  00000+0 -18759-2 0  2577
2 62810  53.1588 150.1879 0001319  86.6187 276.1760 15.34436155    17

Verfolge STARLINK-32851 in Echtzeit mit AllMySat

Download on the App Store